[[{"header":{"parameterUnit":"m.s-1","parameterCategory":1,"la1":30.2991,"la2":30.254,"lo1":-89.0895,"lo2":-89.0444,"dy":0.0017,"dx":0.0017,"nx":28,"ny":28,"refTime":"2025-04-04T21:00:00:Z","depth":0,"parameterNumber":2,"parameterNumberName":"U-component_of_WINDS"},"data":[0,0,0,0,0,0,0,0,0,0,0,0,0,0,0,0,0,0,0,0,0,0,0,0,0,0,0,0,0,0,0,0,0,0,0,0,0,0,0,0,0,0,0,0,0,0,0,0,0,0,0,0,0,0,0,0,0,0,-3.82,-3.8201,0,-3.83,-3.8302,-3.8303,-3.8314,-3.8313,-3.8312,-3.8311,-3.8413,-3.8417,-3.8421,0,0,0,0,0,0,0,0,0,0,0,0,0,-3.8017,-3.8021,-3.82,-3.8201,-3.8202,-3.83,-3.8302,-3.8303,-3.8314,-3.8313,-3.8311,-3.831,-3.8412,-3.8416,-3.8421,0,0,0,0,0,0,0,0,0,0,0,0,0,-3.8105,-3.8022,-3.82,-3.8219,-3.8222,-3.83,-3.8302,-3.8303,-3.8314,-3.8312,-3.8311,-3.831,-3.8411,-3.8416,-3.8421,-3.8486,0,0,-3.8438,-3.8441,0,0,0,0,0,0,0,0,-3.81,-3.8112,-3.8215,-3.8218,-3.8221,-3.8293,-3.8275,-3.8365,-3.8314,-3.8279,-3.8311,-3.8309,-3.8374,-3.8383,-3.8405,-3.8491,-3.8495,-3.8439,-3.8442,-3.8445,-3.8446,0,0,0,0,0,0,0,-3.8094,-3.8107,-3.824,-3.8217,-3.8221,-3.8223,-3.8234,-3.8292,-3.8334,-3.8282,-3.8283,-3.8295,-3.8376,-3.84,-3.8408,-3.8497,-3.8439,-3.8444,-3.8447,-3.8449,-3.8641,-3.8643,0,0,0,0,0,0,-3.8084,-3.8102,-3.8236,-3.8243,-3.8156,-3.8228,-3.824,-3.8271,-3.8334,-3.8342,-3.8296,-3.8295,-3.8391,-3.8401,-3.8411,-3.8491,-3.8445,-3.845,-3.8453,-3.8639,-3.8642,-3.8643,0,0,0,0,0,0,-3.808,-3.8096,-3.8232,-3.8173,-3.819,-3.8233,-3.8268,-3.8274,-3.8298,-3.8344,-3.8352,-3.8313,-3.839,-3.8403,-3.8468,-3.8494,-3.8452,-3.8457,-3.8637,-3.864,-3.8643,-3.865,0,0,0,0,0,0,-3.8075,-3.8095,-3.8119,-3.8173,-3.8194,-3.8287,-3.827,-3.8277,-3.8308,-3.8307,-3.8362,-3.8369,-3.839,-3.8459,-3.8473,-3.8501,-3.8462,-3.8635,-3.8639,-3.8642,-3.8648,-3.8653,-3.8657,0,0,0,0,0,-3.8068,-3.8117,-3.8121,-3.8137,-3.8225,-3.8288,-3.83,-3.8323,-3.831,-3.8335,-3.8365,-3.8368,-3.849,-3.8466,-3.8481,-3.8512,-3.8633,-3.8638,-3.8641,-3.8646,-3.8652,-3.8657,0,0,0,0,0,0,-3.8065,-3.8125,-3.8129,-3.8197,-3.8238,-3.829,-3.8322,-3.8329,-3.8374,-3.8371,-3.8398,-3.841,-3.8473,-3.8499,-3.8471,-3.8578,-3.856,-3.8568,-3.8558,-3.8564,-3.8569,-3.8561,-3.8466,0,0,0,0,0,-3.8073,-3.8119,-3.8168,-3.8224,-3.8244,-3.828,-3.8308,-3.8322,-3.8365,-3.8382,-3.8417,-3.8458,-3.8506,-3.8537,-3.8584,-3.8652,-3.8664,-3.8681,-3.8686,-3.8689,-3.8695,-3.8733,-3.8741,-3.8657,-3.8657,-3.8657,0,0,-3.8088,-3.8126,-3.8154,-3.8224,-3.8257,-3.8304,-3.8294,-3.8344,-3.8379,-3.839,-3.8452,-3.8479,-3.8528,-3.8594,-3.8625,-3.8618,-3.8721,-3.8694,-3.8697,-3.8701,-3.8738,-3.8746,-3.8753,-3.8659,-3.8659,-3.8658,0,0,-3.814,-3.8174,-3.8223,-3.8257,-3.8307,-3.8331,-3.8343,-3.8395,-3.8413,-3.8476,-3.8485,-3.8528,-3.861,-3.8644,-3.8672,-3.8738,-3.8741,-3.8752,-3.8776,-3.8813,-3.882,-3.8826,-3.8848,-3.8856,-3.8758,-3.8758,-3.8758,0,-3.8152,-3.8223,-3.8248,-3.8298,-3.8328,-3.8341,-3.8391,-3.8423,-3.8486,-3.8507,-3.8498,-3.8601,-3.8634,-3.8709,-3.8725,-3.8747,-3.8762,-3.8745,-3.8817,-3.8823,-3.8829,-3.8851,-3.886,-3.8759,-3.8759,-3.8759,-3.8758,0,-3.8236,-3.8286,-3.832,-3.838,-3.8415,-3.8465,-3.8497,-3.8529,-3.8541,-3.8566,-3.863,-3.8671,-3.8726,-3.8745,-3.8757,-3.8821,-3.8815,-3.8811,-3.8794,-3.8837,-3.8859,-3.8867,-3.876,-3.876,-3.8759,-3.8759,0,0,-3.8288,-3.8362,-3.8374,-3.8401,-3.8458,-3.8497,-3.8548,-3.8602,-3.8628,-3.8672,-3.8715,-3.8784,-3.8781,-3.8813,-3.8829,-3.8862,-3.8911,-3.8854,-3.8855,-3.8862,-3.8984,-3.8985,-3.8995,-3.8914,-3.8916,-3.8917,-3.8979,0,-3.8345,-3.8435,-3.8459,-3.8536,-3.8582,-3.8595,-3.8639,-3.8679,-3.8704,-3.8747,-3.8774,-3.8823,-3.8815,-3.8835,-3.8867,-3.8898,-3.8935,-3.8894,-3.8954,-3.8956,-3.894,-3.9006,-3.9008,-3.9065,-3.8988,-3.8989,-3.8991,0,-3.8424,-3.8469,-3.855,-3.8601,-3.8622,-3.8661,-3.8712,-3.8753,-3.8799,-3.8814,-3.885,-3.8864,-3.8917,-3.8898,-3.8973,-3.8944,-3.897,-3.8989,-3.8992,-3.8997,-3.8975,-3.9012,-3.9083,-3.9091,-3.9004,-3.9003,-3.9002,0,-3.8452,-3.8533,-3.8592,-3.8616,-3.8677,-3.8704,-3.8731,-3.8776,-3.8807,-3.8852,-3.8872,-3.8923,-3.8951,-3.899,-3.9017,-3.9001,-3.9089,-3.9072,-3.9103,-3.9102,-3.912,-3.9118,-3.9195,-3.9139,-3.9139,-3.9138,-3.9138,0,-3.8513,-3.8562,-3.8606,-3.8642,-3.8697,-3.8725,-3.8779,-3.8806,-3.8846,-3.8888,-3.8903,-3.8942,-3.8975,-3.9019,-3.904,-3.9098,-3.9111,-3.9125,-3.913,-3.9123,-3.9121,-3.914,-3.9136,-3.9141,-3.914,-3.914,-3.9139,0,-3.8554,-3.8585,-3.865,-3.8703,-3.8718,-3.8756,-3.8801,-3.8837,-3.8863,-3.8916,-3.893,-3.897,-3.9022,-3.9053,-3.912,-3.9134,-3.9198,-3.9202,-3.9182,-3.9184,-3.9213,-3.9209,-3.9303,-3.9317,-3.9253,-3.9253,-3.9254,0,-3.859,-3.8628,-3.8685,-3.8714,-3.8741,-3.8788,-3.882,-3.8849,-3.8881,-3.8936,-3.8966,-3.9019,-3.9063,-3.9146,-3.9181,-3.9232,-3.9236,-3.9266,-3.9244,-3.9236,-3.9236,-3.9233,-3.9236,-3.9269,-3.9269,-3.927,-3.927,0,-3.8651,-3.8665,-3.871,-3.8761,-3.8798,-3.8839,-3.8881,-3.8904,-3.8939,-3.8975,-3.9029,-3.9063,-3.913,-3.9183,-3.9237,-3.9265,-3.9273,-3.9277,-3.9287,-3.9279,-3.9266,-3.9273,-3.9191,-3.9274,-3.9274,-3.9274,-3.9273,-3.9273,-3.869,-3.8724,-3.877,-3.882,-3.8854,-3.8892,-3.8928,-3.8959,-3.9004,-3.9061,-3.9075,-3.9131,-3.9177,-3.925,-3.9279,-3.9324,-3.9319,-3.9333,-3.9336,-3.9339,-3.934,-3.926,-3.9334,-3.9334,-3.9334,-3.9334,-3.9333,0,-3.8751,-3.8781,-3.8827,-3.8884,-3.8923,-3.8929,-3.8975,-3.9007,-3.9056,-3.9097,-3.914,-3.9202,-3.9253,-3.9293,-3.9346,-3.9374,-3.9379,-3.9386,-3.9384,-3.939,-3.9341,-3.9327,-3.9381,-3.9381,-3.9381,-3.9381,-3.9381,-3.9381,-3.8788,-3.8846,-3.8865,-3.894,-3.897,-3.9025,-3.9051,-3.9086,-3.9119,-3.9187,-3.923,-3.9256,-3.9297,-3.9352,-3.94,-3.941,-3.9428,-3.9435,-3.9446,-3.9399,-3.9394,-3.9389,-3.9376,-3.9439,-3.9439,-3.9491,-3.9492,-3.9492]},{"header":{"parameterUnit":"m.s-1","parameterCategory":1,"la1":30.2991,"la2":30.254,"lo1":-89.0895,"lo2":-89.0444,"dy":0.0017,"dx":0.0017,"nx":28,"ny":28,"refTime":"2025-04-04T21:00:00:Z","depth":0,"parameterNumber":3,"parameterNumberName":"V-component_of_WINDS"},"data":[0,0,0,0,0,0,0,0,0,0,0,0,0,0,0,0,0,0,0,0,0,0,0,0,0,0,0,0,0,0,0,0,0,0,0,0,0,0,0,0,0,0,0,0,0,0,0,0,0,0,0,0,0,0,0,0,0,0,6.1613,6.1614,0,6.1748,6.175,6.1752,6.1721,6.1718,6.1716,6.1713,6.185,6.1856,6.1862,0,0,0,0,0,0,0,0,0,0,0,0,0,6.1327,6.1332,6.1613,6.1615,6.1616,6.1748,6.175,6.1752,6.1721,6.1718,6.1715,6.1712,6.1848,6.1855,6.1862,0,0,0,0,0,0,0,0,0,0,0,0,0,6.1456,6.1334,6.1613,6.1617,6.1619,6.1748,6.175,6.1752,6.1722,6.1718,6.1714,6.1711,6.1845,6.1854,6.1863,6.1996,0,0,6.1891,6.1895,0,0,0,0,0,0,0,0,6.1448,6.1466,6.1615,6.1617,6.1619,6.1714,6.1699,6.1834,6.1723,6.1683,6.1713,6.1709,6.1808,6.1819,6.1853,6.2002,6.2008,6.1891,6.1897,6.1901,6.1903,0,0,0,0,0,0,0,6.144,6.146,6.1666,6.1617,6.162,6.1612,6.1626,6.1725,6.1765,6.1686,6.1684,6.1701,6.1808,6.1845,6.1856,6.201,6.1891,6.1899,6.1905,6.1908,6.2277,6.2281,0,0,0,0,0,0,6.1429,6.1453,6.1662,6.167,6.1523,6.162,6.1636,6.1687,6.1764,6.1772,6.1704,6.1699,6.1831,6.1846,6.1861,6.2023,6.1901,6.1909,6.1914,6.2273,6.2278,6.2283,0,0,0,0,0,0,6.1423,6.1448,6.1657,6.1561,6.1587,6.1629,6.1687,6.1692,6.1729,6.1777,6.1784,6.1734,6.1829,6.1848,6.1963,6.2027,6.1913,6.1922,6.2268,6.2274,6.228,6.2348,0,0,0,0,0,0,6.1415,6.1446,6.1497,6.1563,6.1593,6.1757,6.1691,6.1697,6.1745,6.1739,6.1807,6.1815,6.1827,6.195,6.1972,6.2038,6.1929,6.2262,6.2271,6.2278,6.234,6.2356,6.2369,0,0,0,0,0,6.1405,6.1509,6.1499,6.1525,6.1657,6.1761,6.1778,6.179,6.175,6.1801,6.1833,6.1813,6.2017,6.1962,6.1987,6.2056,6.2258,6.2268,6.2278,6.2333,6.2353,6.2369,0,0,0,0,0,0,6.1448,6.1518,6.1508,6.1636,6.1693,6.1755,6.1821,6.181,6.1879,6.1871,6.1883,6.1898,6.2016,6.2047,6.1985,6.219,6.2131,6.2147,6.2165,6.2184,6.2198,6.2189,6.1936,0,0,0,0,0,6.1473,6.1551,6.1608,6.1716,6.1745,6.1778,6.1824,6.1829,6.1888,6.1911,6.1951,6.2009,6.2086,6.2136,6.221,6.2344,6.2359,6.2404,6.2419,6.243,6.2444,6.252,6.2541,6.2315,6.2315,6.2315,0,0,6.1524,6.1572,6.1621,6.1726,6.1771,6.1853,6.1799,6.1886,6.1948,6.1924,6.2036,6.2068,6.2133,6.2259,6.2316,6.2288,6.251,6.2443,6.2452,6.2459,6.2532,6.2553,6.2572,6.2322,6.2321,6.232,0,0,6.166,6.1703,6.18,6.1846,6.1915,6.1937,6.196,6.2025,6.2045,6.2158,6.2143,6.2215,6.2347,6.2395,6.2437,6.2594,6.2579,6.2617,6.2694,6.2768,6.2786,6.2802,6.286,6.288,6.263,6.263,6.2631,0,6.1715,6.1838,6.185,6.1941,6.1989,6.1973,6.2071,6.2115,6.2204,6.2237,6.2205,6.2373,6.2415,6.2553,6.2592,6.2625,6.2653,6.261,6.2782,6.2798,6.2813,6.2869,6.2891,6.2635,6.2634,6.2634,6.2633,0,6.1904,6.1989,6.2059,6.2147,6.2202,6.2296,6.2323,6.2377,6.2378,6.2404,6.252,6.257,6.2655,6.2688,6.2689,6.2827,6.2808,6.2779,6.2721,6.2839,6.2892,6.2913,6.2641,6.264,6.2638,6.2637,0,0,6.207,6.2166,6.2191,6.2232,6.2308,6.2374,6.2468,6.2552,6.26,6.2662,6.2742,6.2855,6.283,6.2877,6.2883,6.2947,6.3072,6.2911,6.2912,6.2941,6.323,6.3253,6.3277,6.3062,6.3066,6.3069,6.3225,0,6.2214,6.2381,6.2396,6.2545,6.2626,6.2613,6.2695,6.275,6.2777,6.2849,6.2877,6.2959,6.2918,6.2947,6.301,6.3043,6.313,6.3032,6.3137,6.314,6.3123,6.3304,6.3328,6.3473,6.3246,6.3249,6.3252,0,6.2405,6.2475,6.2633,6.27,6.2734,6.2808,6.2888,6.2957,6.302,6.3035,6.3089,6.3087,6.3184,6.3122,6.3257,6.319,6.3234,6.3257,6.3263,6.3274,6.3204,6.3322,6.352,6.3542,6.3284,6.3281,6.3279,0,6.2513,6.2647,6.2759,6.2794,6.2875,6.2927,6.2963,6.3023,6.3073,6.3143,6.3176,6.3255,6.3299,6.3361,6.3381,6.3333,6.3516,6.3454,6.3532,6.3532,6.3571,6.3569,6.3781,6.3597,6.3597,6.3596,6.3596,0,6.2674,6.2771,6.2809,6.2879,6.2989,6.3005,6.3113,6.3146,6.3199,6.3275,6.3268,6.3339,6.336,6.3436,6.3452,6.3562,6.3581,6.3597,6.36,6.3599,6.3597,6.3629,6.362,6.3602,6.3601,6.36,6.3599,0,6.2813,6.2842,6.2965,6.3032,6.3051,6.3129,6.3186,6.3254,6.328,6.3376,6.34,6.344,6.3529,6.3555,6.366,6.3671,6.3802,6.3795,6.3781,6.3782,6.3858,6.3852,6.4099,6.4133,6.3925,6.3927,6.3929,0,6.2915,6.299,6.3066,6.3117,6.3156,6.3237,6.329,6.3309,6.3364,6.3443,6.3501,6.3589,6.366,6.3802,6.3841,6.3923,6.3919,6.4,6.3931,6.3928,6.3923,6.3919,6.3928,6.4013,6.4016,6.4017,6.4019,0,6.3093,6.3104,6.318,6.3263,6.3326,6.3391,6.3453,6.3496,6.3524,6.3586,6.3677,6.3733,6.3842,6.393,6.4013,6.405,6.404,6.404,6.4063,6.4063,6.4053,6.4062,6.3819,6.4035,6.4033,6.4032,6.4031,6.403,6.3218,6.3285,6.335,6.3436,6.3485,6.3545,6.3612,6.3648,6.3725,6.3816,6.3822,6.3922,6.3985,6.4096,6.4137,6.4216,6.4192,6.4224,6.4232,6.4241,6.4248,6.4039,6.423,6.423,6.423,6.4229,6.4229,0,6.3397,6.3439,6.3517,6.3607,6.3675,6.366,6.3729,6.3787,6.3875,6.3935,6.4007,6.4113,6.4199,6.4245,6.4331,6.4385,6.4383,6.4407,6.4404,6.4413,6.4263,6.4236,6.4407,6.4407,6.4407,6.4407,6.4407,6.4407,6.3499,6.3613,6.3632,6.3772,6.3812,6.3911,6.3952,6.4007,6.4056,6.4175,6.4247,6.4277,6.4332,6.4422,6.4501,6.4512,6.4545,6.4573,6.4582,6.4441,6.4423,6.4406,6.438,6.4579,6.4579,6.4725,6.4726,6.4727]}]]